FW3071 Weather Reports


time (UTC)temp
C
wind
direction
speed
KPH
gust
KPH
rain 1hr
cm
rain 24hr
cm
rain mn
cm
humidity
%
barometer
mb
20260510153517 28 157 6.4 19.3 0.00 0.00 0.00 79 1012.9
20260510153042 28 79 9.7 19.3 0.00 0.00 0.00 80 1012.8
20260510152520 28 78 14.5 19.3 0.00 0.00 0.00 82 1012.8
20260510152019 28 111 9.7 19.3 0.00 0.00 0.00 83 1012.7
20260510151537 27 167 9.7 19.3 0.00 0.00 0.00 81 1012.8
20260510151019 27 131 11.3 17.7 0.00 0.00 0.00 81 1012.8
20260510150519 28 155 9.7 16.1 0.00 0.00 0.00 82 1012.7
20260510150035 28 161 11.3 17.7 0.00 0.00 0.00 81 1012.6
20260510145520 28 145 11.3 17.7 0.00 0.00 0.00 79 1012.5
20260510145018 28 132 11.3 17.7 0.00 0.00 0.00 80 1012.4
20260510144539 28 150 11.3 19.3 0.00 0.00 0.00 81 1012.3
20260510144018 28 116 11.3 19.3 0.00 0.00 0.00 82 1012.2
20260510143522 27 127 11.3 17.7 0.00 0.00 0.00 85 1012.2
20260510143040 27 130 9.7 20.9 0.00 0.00 0.00 86 1012.2
20260510142519 27 117 12.9 20.9 0.00 0.00 0.00 87 1012.2
20260510142020 27 128 12.9 19.3 0.00 0.00 0.00 87 1012.2
20260510141539 26 117 11.3 19.3 0.00 0.00 0.00 88 1012.1
20260510141020 26 155 11.3 20.9 0.00 0.00 0.00 89 1012.1
20260510140519 26 123 12.9 20.9 0.00 0.00 0.00 90 1012.0
20260510140035 26 157 11.3 19.3 0.00 0.00 0.00 91 1011.9
20260510135522 26 144 9.7 16.1 0.00 0.18 0.00 91 1012.0
20260510135020 26 154 9.7 17.7 0.00 0.18 0.00 92 1012.0
20260510134535 25 167 11.3 17.7 0.00 0.18 0.00 91 1011.9
20260510134023 25 162 11.3 17.7 0.00 0.18 0.00 91 1011.9
20260510133519 25 149 9.7 17.7 0.00 0.18 0.00 92 1011.9
20260510133035 25 136 9.7 19.3 0.00 0.18 0.00 92 1011.9
20260510132519 25 153 11.3 19.3 0.00 0.18 0.00 93 1011.8
20260510132020 25 144 12.9 19.3 0.00 0.18 0.00 93 1011.9
20260510131534 25 147 8.0 16.1 0.00 0.18 0.00 94 1011.8
20260510131025 25 128 9.7 16.1 0.00 0.18 0.00 94 1011.7
20260510130518 25 165 8.0 17.7 0.00 0.18 0.00 95 1011.7
20260510130035 25 126 9.7 17.7 0.00 0.18 0.00 95 1011.6
20260510125521 25 126 9.7 17.7 0.00 0.69 0.00 95 1011.5
20260510125021 25 114 9.7 16.1 0.00 0.69 0.00 95 1011.6
20260510124539 25 108 4.8 11.3 0.00 0.69 0.00 95 1011.5
20260510124019 24 130 3.2 6.4 0.00 0.69 0.00 95 1011.5
20260510123519 24 130 1.6 6.4 0.00 0.69 0.00 95 1011.5
20260510123036 24 130 3.2 6.4 0.00 0.69 0.00 95 1011.5
20260510122518 24 130 3.2 8.0 0.00 0.69 0.00 95 1011.4
20260510122020 24 130 3.2 12.9 0.00 0.69 0.00 95 1011.4
20260510121535 24 130 4.8 12.9 0.00 0.69 0.00 95 1011.3
20260510121019 24 130 4.8 12.9 0.00 0.69 0.00 95 1011.3
20260510120524 24 134 3.2 8.0 0.00 0.69 0.00 95 1011.2
20260510120035 24 134 3.2 14.5 0.00 0.69 0.00 95 1011.2
20260510115520 24 134 6.4 14.5 0.00 1.27 0.00 95 1011.0
20260510115019 24 145 4.8 12.9 0.00 1.27 0.00 95 1011.0
20260510114534 24 157 4.8 12.9 0.00 1.27 0.00 95 1011.0
20260510114019 24 153 8.0 11.3 0.00 1.27 0.00 95 1011.0
20260510113518 23 155 4.8 9.7 0.00 1.27 0.00 95 1011.1
20260510113042 23 145 3.2 9.7 0.00 1.27 0.00 95 1011.1
20260510112518 23 145 1.6 9.7 0.00 1.27 0.00 95 1011.0
20260510112019 23 122 3.2 8.0 0.00 1.27 0.00 95 1011.0
20260510111539 23 122 1.6 6.4 0.00 1.27 0.00 95 1011.0
20260510111017 23 122 1.6 4.8 0.00 1.27 0.00 95 1011.0
20260510110517 23 122 0.0 4.8 0.00 1.27 0.00 95 1010.9
20260510110049 23 122 0.0 6.4 0.00 1.27 0.00 95 1010.9
20260510105522 23 122 0.0 6.4 0.00 1.75 0.00 95 1011.0
20260510105018 23 122 3.2 6.4 0.00 1.75 0.00 95 1011.0
20260510104535 23 122 1.6 4.8 0.00 1.75 0.00 95 1011.1
20260510104017 23 122 1.6 4.8 0.00 1.75 0.00 95 1011.0
20260510103517 23 122 1.6 6.4 0.00 1.75 0.00 95 1010.9
20260510103039 23 122 1.6 9.7 0.00 1.75 0.00 95 1010.9
20260510102518 23 122 3.2 9.7 0.00 1.75 0.00 95 1010.9
20260510102020 23 122 4.8 11.3 0.00 1.75 0.00 95 1010.9
20260510101534 24 138 4.8 11.3 0.00 1.75 0.00 95 1010.9
20260510101018 24 130 3.2 9.7 0.00 1.75 0.00 95 1010.9
20260510100522 24 145 4.8 9.7 0.00 1.75 0.00 95 1010.9
20260510100048 23 125 3.2 11.3 0.00 1.75 0.00 95 1011.0
20260510095521 23 125 1.6 11.3 0.00 1.78 0.00 94 1011.0
20260510095021 23 132 1.6 11.3 0.00 1.78 0.00 94 1010.8
20260510094541 23 0 0.0 6.4 0.00 1.78 0.00 94 1010.9
20260510094022 23 132 0.0 6.4 0.00 1.78 0.00 94 1011.0
20260510093521 23 132 1.6 6.4 0.00 1.78 0.00 94 1011.0
20260510093039 23 0 1.6 4.8 0.00 1.78 0.00 94 1011.0
20260510092522 23 132 1.6 6.4 0.00 1.78 0.00 94 1010.8
20260510092021 23 132 3.2 6.4 0.00 1.78 0.00 94 1010.8
20260510091534 23 132 3.2 6.4 0.00 1.78 0.00 94 1010.8
20260510091020 23 132 1.6 4.8 0.00 1.78 0.00 94 1010.7
20260510090522 23 0 0.0 6.4 0.00 1.78 0.00 94 1010.6
20260510090035 23 0 1.6 6.4 0.00 1.78 0.00 94 1010.7
20260510085521 23 132 0.0 8.0 0.00 1.78 0.00 94 1010.6
20260510085021 23 132 1.6 8.0 0.00 1.78 0.00 94 1010.7
20260510084547 24 132 3.2 11.3 0.00 1.78 0.00 94 1010.7
20260510084020 24 132 3.2 11.3 0.00 1.78 0.00 94 1010.7
20260510083523 24 122 1.6 6.4 0.00 1.78 0.00 94 1010.7
20260510083039 24 140 1.6 8.0 0.00 1.78 0.00 94 1010.7
20260510082523 24 127 3.2 9.7 0.00 1.78 0.00 94 1010.8
20260510082021 23 149 4.8 11.3 0.00 1.78 0.00 94 1010.8
20260510081542 23 165 4.8 11.3 0.00 1.78 0.00 93 1010.8
20260510081022 24 153 4.8 12.9 0.00 1.78 0.00 93 1010.8
20260510080521 24 151 4.8 12.9 0.00 1.78 0.00 93 1010.8
20260510080052 24 138 4.8 12.9 0.00 1.78 0.00 93 1010.9
20260510075522 24 148 4.8 11.3 0.00 1.78 0.00 93 1010.9
20260510075022 24 135 4.8 11.3 0.00 1.78 0.00 93 1011.0
20260510074544 24 136 3.2 11.3 0.00 1.78 0.00 93 1011.0
20260510074021 24 136 6.4 12.9 0.00 1.78 0.00 93 1011.0
20260510073521 24 112 4.8 14.5 0.00 1.78 0.00 93 1011.0
20260510073049 24 136 6.4 14.5 0.00 1.78 0.00 93 1011.0
20260510072521 24 159 6.4 17.7 0.00 1.78 0.00 93 1011.0
20260510072022 24 154 8.0 17.7 0.00 1.78 0.00 92 1011.0
20260510071543 24 144 8.0 16.1 0.00 1.78 0.00 92 1010.9
20260510071021 24 147 8.0 14.5 0.00 1.78 0.00 92 1010.9
20260510070521 24 138 8.0 14.5 0.00 1.78 0.00 92 1011.1
20260510070048 24 142 8.0 17.7 0.00 1.78 0.00 92 1011.1
20260510065521 24 140 8.0 17.7 0.00 1.78 0.00 92 1011.1
20260510065021 24 130 11.3 17.7 0.00 1.78 0.00 92 1011.3
20260510064545 24 180 9.7 17.7 0.00 1.78 0.00 92 1011.3
20260510064021 24 141 8.0 16.1 0.00 1.78 0.00 92 1011.4
20260510063521 24 121 8.0 12.9 0.00 1.78 0.00 91 1011.5
20260510063038 24 115 6.4 17.7 0.00 1.78 0.00 91 1011.4
20260510062522 24 98 6.4 17.7 0.00 1.78 0.00 91 1011.5
20260510062021 24 134 6.4 16.1 0.00 1.78 0.00 91 1011.5
20260510061535 24 107 6.4 16.1 0.00 1.78 0.00 91 1011.5
20260510061024 24 119 9.7 16.1 0.00 1.78 0.00 91 1011.4
20260510060519 24 88 6.4 14.5 0.00 1.78 0.00 91 1011.5
20260510060047 24 86 6.4 12.9 0.00 1.78 0.00 91 1011.5
20260510055526 24 118 6.4 12.9 0.00 1.78 0.00 91 1011.4
20260510055022 24 105 4.8 12.9 0.00 1.78 0.00 91 1011.4
20260510054540 23 81 6.4 12.9 0.00 1.78 0.00 90 1011.4
20260510054022 23 108 6.4 11.3 0.00 1.78 0.00 90 1011.3
20260510053520 24 117 3.2 11.3 0.00 1.78 0.00 90 1011.2
20260510053039 24 121 4.8 16.1 0.00 1.78 0.00 90 1011.1
20260510052519 24 146 8.0 16.1 0.00 1.78 0.00 90 1011.1
20260510052022 24 129 6.4 17.7 0.00 1.78 0.00 90 1011.0
20260510051543 24 105 6.4 24.1 0.00 1.78 0.00 90 1010.9
20260510051023 24 165 11.3 24.1 0.00 1.78 0.00 90 1010.6
20260510050519 24 148 12.9 22.5 0.00 1.78 0.00 90 1010.5
20260510050037 24 151 12.9 19.3 0.00 1.78 0.00 89 1010.6
20260510045522 24 168 12.9 17.7 0.00 1.78 1.78 90 1010.6
20260510045019 24 161 11.3 16.1 0.00 1.78 1.78 89 1010.7
20260510044536 24 145 8.0 17.7 0.00 1.78 1.78 89 1010.7
20260510044019 24 148 8.0 17.7 0.00 1.78 1.78 89 1010.7
20260510043522 24 140 9.7 16.1 0.00 1.78 1.78 88 1010.7
20260510043034 24 145 8.0 16.1 0.00 1.78 1.78 88 1010.7
20260510042522 24 141 6.4 12.9 0.00 1.78 1.78 87 1010.8
20260510042020 24 156 4.8 12.9 0.00 1.78 1.78 87 1010.7
20260510041542 24 131 8.0 12.9 0.00 1.78 1.78 87 1010.7
20260510041023 24 122 6.4 12.9 0.00 1.78 1.78 86 1010.9
20260510040519 24 118 3.2 14.5 0.00 1.78 1.78 86 1010.8
20260510040040 24 131 6.4 16.1 0.00 1.78 1.78 86 1010.8
20260510035521 25 105 8.0 16.1 0.00 1.78 1.78 86 1010.7
20260510035019 25 104 8.0 16.1 0.00 1.78 1.78 85 1010.7
20260510034550 25 126 6.4 17.7 0.00 1.78 1.78 85 1010.6
20260510034022 25 115 11.3 17.7 0.00 1.78 1.78 85 1010.5
20260510033519 25 119 11.3 19.3 0.00 1.78 1.78 84 1010.5
20260510033051 25 113 11.3 19.3 0.00 1.78 1.78 84 1010.6
20260510032519 25 93 11.3 19.3 0.00 1.78 1.78 83 1010.5
20260510032019 25 97 12.9 19.3 0.00 1.78 1.78 83 1010.4
20260510031538 25 140 11.3 19.3 0.00 1.78 1.78 82 1010.4
20260510031019 25 113 9.7 20.9 0.00 1.78 1.78 82 1010.3
20260510030519 25 107 11.3 20.9 0.00 1.78 1.78 81 1010.2
20260510030034 25 118 12.9 20.9 0.00 1.78 1.78 81 1010.1
20260510025522 25 107 14.5 20.9 0.00 1.78 1.78 81 1010.0
20260510025020 25 119 8.0 17.7 0.00 1.78 1.78 81 1009.9
20260510024535 25 103 9.7 16.1 0.00 1.78 1.78 81 1009.7
20260510024017 25 109 9.7 16.1 0.00 1.78 1.78 81 1009.7
20260510023520 25 105 11.3 22.5 0.00 1.78 1.78 81 1009.6
20260510023039 25 107 12.9 22.5 0.00 1.78 1.78 81 1009.6
20260510022519 25 126 12.9 20.9 0.00 1.78 1.78 80 1009.4
20260510022019 25 148 6.4 16.1 0.00 1.78 1.78 81 1009.2
20260510021616 25 127 8.0 17.7 0.00 1.78 1.78 80 1009.2
20260510021019 25 129 8.0 17.7 0.00 1.78 1.78 80 1009.3
20260510020519 25 133 12.9 17.7 0.00 1.78 1.78 80 1009.0
20260510020035 25 129 11.3 22.5 0.00 1.78 1.78 79 1009.1
20260510015521 25 133 11.3 22.5 0.00 1.78 1.78 78 1009.1
20260510015018 25 128 9.7 22.5 0.00 1.78 1.78 77 1009.1
20260510014548 25 129 14.5 22.5 0.00 1.78 1.78 76 1009.2
20260510014020 25 98 12.9 19.3 0.00 1.78 1.78 74 1009.0
20260510013522 26 105 11.3 17.7 0.00 1.78 1.78 73 1008.8
20260510013035 26 146 9.7 17.7 0.00 1.78 1.78 72 1008.9
20260510012519 26 125 6.4 16.1 0.00 1.78 1.78 73 1008.8
20260510012019 26 129 6.4 17.7 0.00 1.78 1.78 73 1008.9
20260510011534 26 116 9.7 17.7 0.00 1.78 1.78 73 1008.7
20260510011017 26 130 8.0 19.3 0.00 1.78 1.78 73 1008.7
20260510010517 26 133 8.0 19.3 0.00 1.78 1.78 72 1008.9
20260510010052 27 123 11.3 19.3 0.00 1.78 1.78 71 1008.8
20260510005517 27 132 11.3 22.5 0.00 1.78 1.78 70 1008.8
20260510005019 27 111 14.5 22.5 0.00 1.78 1.78 69 1008.8
20260510004539 27 133 12.9 24.1 0.00 1.78 1.78 69 1008.9
20260510004019 27 126 14.5 24.1 0.00 1.78 1.78 67 1008.9
20260510003519 28 127 14.5 22.5 0.00 1.78 1.78 67 1008.9
20260510003036 28 116 14.5 24.1 0.00 1.78 1.78 66 1009.1
20260510002520 28 148 16.1 24.1 0.00 1.78 1.78 64 1009.1
20260510002019 28 135 17.7 24.1 0.00 1.78 1.78 64 1009.1
20260510001536 28 82 12.9 22.5 0.00 1.78 1.78 63 1009.0
20260510001019 28 99 11.3 20.9 0.00 1.78 1.78 63 1009.0
20260510000520 28 119 12.9 24.1 0.00 1.78 1.78 63 1008.9
20260510000036 28 116 12.9 25.7 0.00 1.78 1.78 64 1008.9
20260509235520 28 150 14.5 25.7 0.00 1.78 1.78 63 1009.0
20260509235019 29 110 17.7 25.7 0.00 1.78 1.78 62 1008.9
20260509234535 29 122 17.7 25.7 0.00 1.78 1.78 62 1008.9
20260509234018 29 114 17.7 25.7 0.00 1.78 1.78 61 1008.9
20260509233519 30 138 14.5 27.4 0.00 1.78 1.78 61 1008.9
20260509233039 30 137 17.7 27.4 0.00 1.78 1.78 59 1008.9
20260509232521 30 109 19.3 25.7 0.00 1.78 1.78 58 1009.0
20260509232019 30 137 16.1 25.7 0.00 1.78 1.78 59 1009.0
20260509231537 30 97 16.1 25.7 0.00 1.78 1.78 60 1009.0
20260509231019 30 130 16.1 25.7 0.00 1.78 1.78 56 1009.2
20260509230519 31 127 17.7 29.0 0.00 1.78 1.78 58 1009.1
20260509230044 31 119 17.7 29.0 0.00 1.78 1.78 58 1009.1
20260509225519 31 129 19.3 29.0 0.00 1.78 1.78 55 1009.1
20260509225018 31 113 20.9 29.0 0.00 1.78 1.78 58 1009.1
20260509224536 31 111 17.7 25.7 0.00 1.78 1.78 57 1009.0
20260509224019 30 101 16.1 32.2 0.00 1.78 1.78 58 1009.1
20260509223519 30 109 24.1 32.2 0.00 1.78 1.78 55 1009.0
20260509223038 31 90 19.3 29.0 0.00 1.78 1.78 56 1009.1
20260509222519 31 115 19.3 29.0 0.00 1.78 1.78 55 1009.2
20260509222019 31 91 16.1 25.7 0.00 1.78 1.78 60 1009.1
20260509221538 31 117 16.1 24.1 0.00 1.78 1.78 57 1009.1
20260509221021 32 96 17.7 25.7 0.00 1.78 1.78 55 1009.1
20260509220522 32 100 14.5 25.7 0.00 1.78 1.78 57 1009.1
20260509220035 31 117 19.3 25.7 0.00 1.78 1.78 55 1009.2
20260509215517 31 85 16.1 25.7 0.00 1.78 1.78 55 1009.0
20260509215019 32 98 17.7 25.7 0.00 1.78 1.78 54 1009.0
20260509214542 32 98 19.3 25.7 0.00 1.78 1.78 53 1009.0
20260509214019 32 129 16.1 22.5 0.00 1.78 1.78 53 1008.9
20260509213519 33 109 12.9 24.1 0.00 1.78 1.78 54 1009.0
20260509213040 32 140 14.5 24.1 0.00 1.78 1.78 53 1009.0
20260509212520 32 103 16.1 24.1 0.00 1.78 1.78 54 1009.0
20260509212022 32 124 14.5 24.1 0.00 1.78 1.78 53 1009.1
20260509211537 32 127 12.9 24.1 0.00 1.78 1.78 52 1009.0
20260509211019 32 132 14.5 22.5 0.00 1.78 1.78 50 1009.0
20260509210521 33 109 12.9 19.3 0.00 1.78 1.78 51 1009.0
20260509210040 32 82 11.3 19.3 0.00 1.78 1.78 54 1009.1
20260509205517 33 106 11.3 19.3 0.00 1.78 1.78 53 1009.2
20260509205019 33 99 11.3 19.3 0.00 1.78 1.78 52 1009.2
20260509204542 33 113 12.9 20.9 0.00 1.78 1.78 52 1009.1
20260509204020 33 84 14.5 24.1 0.00 1.78 1.78 54 1009.2
20260509203519 33 130 14.5 24.1 0.00 1.78 1.78 53 1009.2
20260509203039 33 122 9.7 19.3 0.00 1.78 1.78 55 1009.2
20260509202519 33 98 9.7 19.3 0.00 1.78 1.78 56 1009.3
20260509202021 33 129 12.9 19.3 0.00 1.78 1.78 55 1009.4
20260509201540 33 96 9.7 19.3 0.00 1.78 1.78 57 1009.4
20260509201019 33 101 12.9 19.3 0.00 1.78 1.78 57 1009.5
20260509200519 33 94 9.7 16.1 0.00 1.78 1.78 58 1009.4
20260509200039 33 70 8.0 16.1 0.00 1.78 1.78 58 1009.5
20260509195520 33 66 6.4 16.1 0.00 1.78 1.78 59 1009.4
20260509195019 33 69 8.0 16.1 0.00 1.78 1.78 59 1009.5
20260509194550 32 61 9.7 17.7 0.00 1.78 1.78 60 1009.7
20260509194019 32 22 9.7 22.5 0.00 1.78 1.78 61 1009.6
20260509193519 32 25 11.3 22.5 0.00 1.78 1.78 59 1009.6
20260509193035 32 32 14.5 22.5 0.00 1.78 1.78 59 1009.7
20260509192519 32 11 11.3 20.9 0.00 1.78 1.78 59 1009.6
20260509192019 32 26 16.1 20.9 0.00 1.78 1.78 58 1009.6
20260509191541 33 355 11.3 19.3 0.00 1.78 1.78 59 1009.5
20260509191023 33 95 6.4 12.9 0.00 1.78 1.78 59 1009.5
20260509190519 32 115 6.4 11.3 0.00 1.78 1.78 60 1009.4
20260509190037 32 126 4.8 9.7 0.00 1.78 1.78 57 1009.4
20260509185519 32 134 4.8 9.7 0.00 1.78 1.78 60 1009.4
20260509185019 32 140 3.2 9.7 0.00 1.78 1.78 58 1009.3
20260509184535 32 127 0.0 9.7 0.00 1.78 1.78 62 1009.4
20260509184017 32 127 4.8 9.7 0.00 1.78 1.78 60 1009.4
20260509183519 32 82 1.6 11.3 0.00 1.78 1.78 62 1009.3
20260509183036 32 58 3.2 14.5 0.00 1.78 1.78 63 1009.4
20260509182520 32 51 4.8 14.5 0.00 1.78 1.78 62 1009.5
20260509182017 32 77 6.4 16.1 0.00 1.78 1.78 65 1009.5
20260509181534 31 46 6.4 16.1 0.00 1.78 1.78 65 1009.5
20260509181017 31 31 9.7 16.1 0.00 1.78 1.78 67 1009.6
20260509180518 30 0 0.0 11.3 0.00 1.78 1.78 60 1009.7
20260509180051 30 192 4.8 11.3 0.00 1.78 1.78 58 1009.6
20260509175519 30 196 4.8 9.7 0.00 1.78 1.78 56 1009.6
20260509175019 30 0 1.6 9.7 0.00 1.78 1.78 56 1009.8
20260509174540 30 233 4.8 9.7 0.00 1.78 1.78 60 1009.7
20260509174019 30 250 1.6 9.7 0.00 1.78 1.78 61 1009.7
20260509173520 30 0 4.8 9.7 0.00 1.78 1.78 62 1009.7
20260509173051 30 251 3.2 11.3 0.00 1.78 1.78 62 1009.7
20260509172523 30 263 6.4 11.3 0.00 1.78 1.78 61 1009.7
20260509172021 29 0 3.2 9.7 0.00 1.78 1.78 64 1009.8
20260509171539 29 0 0.0 11.3 0.00 1.78 1.78 62 1009.9
20260509171020 28 244 1.6 11.3 0.00 1.78 1.78 65 1009.8
20260509170519 28 246 3.2 11.3 0.00 1.78 1.78 66 1010.0
20260509170035 28 277 1.6 9.7 0.00 1.78 1.78 66 1010.0
20260509165517 28 204 0.0 9.7 0.00 1.78 1.78 66 1010.0
20260509165019 28 264 0.0 9.7 0.00 1.78 1.78 70 1010.1
20260509164541 28 264 0.0 11.3 0.00 1.78 1.78 69 1010.3
20260509164017 27 0 0.0 11.3 0.00 1.78 1.78 71 1010.5
20260509163523 27 298 4.8 12.9 0.00 1.78 1.78 71 1010.6
20260509163036 27 296 6.4 12.9 0.00 1.78 1.78 70 1010.8
20260509162520 27 310 4.8 11.3 0.00 1.78 1.78 73 1010.6
20260509162018 27 0 4.8 14.5 0.00 1.78 1.78 76 1010.8
20260509161546 26 306 4.8 16.1 0.00 1.78 1.78 77 1010.8
20260509161019 26 329 6.4 16.1 0.00 1.78 1.78 78 1011.0
20260509160518 25 303 8.0 17.7 0.00 1.78 1.78 79 1011.0
20260509160037 25 269 9.7 17.7 0.00 1.78 1.78 79 1010.9
20260509155517 25 323 8.0 17.7 0.00 1.78 1.78 80 1010.8
20260509155017 25 274 6.4 16.1 0.00 1.78 1.78 81 1010.7
20260509154540 25 315 9.7 16.1 0.00 1.78 1.78 80 1010.3
20260509154018 24 280 8.0 14.5 0.00 1.78 1.78 81 1010.1